Simultaneous Nadir Overpasses (SNOs) Predictions

Prediction of SNOs between GOES-14 and NPP Satellite Orbit:

Table of predicted SNOs for the next 14.0 days since TLE Epoch: 3/20/2021
Index Date Time (GOES-14) GOES-14 Lat,Lon NPP Lat,Lon Distance(km) Time Diff (sec)
1 03/21/2021 08:35:53 0.10,-104.40 0.88,-108.02 411.49 80
2 03/22/2021 08:19:48 0.10,-104.40 -0.10,-103.48 105.16 80
3 03/24/2021 20:20:18 -0.11,-104.30 -0.08,-104.25 6.49 80
4 03/27/2021 08:23:20 0.11,-104.37 0.27,-104.98 69.83 80
5 03/28/2021 08:07:16 0.11,-104.37 -0.77,-100.45 446.87 80
6 03/29/2021 20:29:11 -0.12,-104.29 -0.44,-105.75 166.01 80
7 03/30/2021 20:07:47 -0.11,-104.28 0.60,-101.22 348.95 80
8 04/01/2021 08:29:34 0.12,-104.33 0.57,-106.49 245.17 80
9 04/02/2021 08:13:28 0.12,-104.33 -0.41,-101.95 271.33 80
